QPF
0.00 0.00 0.00 0.00 0.00 0.00 0.00 0.00 0.00 0.00 0.00 0.00 0.00 0.00 0.00 0.00 0.00 0.00 0.00 0.00 0.00 0.01 0.00 0.00 0.00 0.00 0.00 0.01 0.04 0.05 0.06 0.03 0.04 0.07 0.02 0.00 0.00 0.00 0.00 0.00 0.00 0.00 0.01 0.05
0.00 0.00 0.00 0.00 0.01 0.00 0.02 0.01 0.00 0.00 0.00 0.01 0.01 0.00 0.00 0.00 0.00 0.00 0.00 0.00 0.01 0.04 0.09 0.06 0.05 0.03 0.08 0.14 0.17 0.07 0.03 0.12 0.18 0.11 0.02 0.00 0.00 0.00 0.00 0.00 0.01 0.01 0.01 0.03
0.00 0.00 0.00 0.00 0.00 0.00 0.00 0.00 0.00 0.00 0.00 0.02 0.03 0.00 0.00 0.00 0.00 0.00 0.00 0.00 0.00 0.04 0.04 0.09 0.08 0.10 0.16 0.12 0.02 0.00 0.01 0.07 0.06 0.02 0.01 0.00 0.00 0.00 0.01 0.02 0.02 0.02 0.01 0.01
0.00 0.01 0.00 0.00 0.00 0.00 0.00 0.00 0.00 0.00 0.02 0.06 0.03 0.06 0.03 0.01 0.00 0.00 0.00 0.01 0.04 0.05 0.11 0.12 0.02 0.01 0.03 0.05 0.01 0.02 0.01 0.02 0.05 0.03 0.02 0.04 0.02 0.01 0.01 0.02 0.03 0.05 0.01 0.00
0.02 0.03 0.00 0.00 0.00 0.00 0.00 0.00 0.00 0.00 0.05 0.03 0.12 0.16 0.10 0.06 0.04 0.01 0.00 0.01 0.02 0.03 0.02 0.06 0.04 0.05 0.04 0.03 0.04 0.03 0.03 0.02 0.02 0.02 0.01 0.01 0.03 0.10 0.11 0.06 0.04 0.07 0.04 0.00
0.00 0.01 0.00 0.00 0.00 0.00 0.00 0.00 0.00 0.00 0.10 0.12 0.05 0.02 0.01 0.04 0.04 0.04 0.01 0.03 0.02 0.01 0.02 0.01 0.07 0.12 0.10 0.01 0.01 0.03 0.05 0.06 0.09 0.09 0.05 0.02 0.04 0.05 0.09 0.15 0.12 0.13 0.08 0.02
0.00 0.00 0.00 0.00 0.00 0.00 0.00 0.00 0.00 0.00 0.16 0.17 0.12 0.02 0.02 0.03 0.01 0.00 0.00 0.00 0.00 0.00 0.01 0.01 0.07 0.07 0.05 0.07 0.00 0.03 0.02 0.02 0.02 0.05 0.09 0.10 0.13 0.12 0.11 0.10 0.12 0.13 0.09 0.04
0.00 0.00 0.00 0.00 0.00 0.00 0.00 0.00 0.00 0.03 0.16 0.20 0.12 0.04 0.07 0.02 0.00 0.00 0.00 0.00 0.00 0.00 0.00 0.00 0.01 0.01 0.02 0.07 0.03 0.06 0.09 0.08 0.02 0.00 0.01 0.04 0.08 0.14 0.12 0.08 0.06 0.04 0.03 0.01
0.00 0.00 0.00 0.00 0.00 0.00 0.01 0.00 0.00 0.02 0.08 0.11 0.06 0.06 0.03 0.00 0.00 0.00 0.00 0.00 0.00 0.00 0.00 0.00 0.03 0.04 0.02 0.01 0.01 0.05 0.07 0.04 0.03 0.01 0.02 0.07 0.07 0.10 0.11 0.11 0.03 0.02 0.00 0.00
0.00 0.00 0.00 0.00 0.01 0.01 0.00 0.00 0.00 0.01 0.01 0.00 0.01 0.00 0.00 0.00 0.00 0.00 0.00 0.00 0.00 0.00 0.00 0.00 0.00 0.00 0.01 0.01 0.01 0.01 0.01 0.01 0.01 0.03 0.02 0.07 0.08 0.08 0.09 0.13 0.07 0.03 0.01 0.00
0.00 0.00 0.00 0.02 0.05 0.01 0.00 0.00 0.00 0.00 0.00 0.00 0.00 0.00 0.00 0.00 0.00 0.00 0.00 0.00 0.00 0.00 0.00 0.00 0.00 0.00 0.00 0.00 0.00 0.00 0.00 0.00 0.00 0.00 0.01 0.03 0.04 0.04 0.04 0.03 0.01 0.01 0.00 0.00
0.00 0.00 0.00 0.00 0.00 0.00 0.00 0.00 0.00 0.00 0.00 0.01 0.00 0.00 0.00 0.00 0.00 0.00 0.00 0.00 0.00 0.00 0.00 0.00 0.00 0.00 0.00 0.00 0.00 0.00 0.00 0.00 0.00 0.00 0.00 0.00 0.00 0.00 0.00 0.00 0.00 0.00 0.00 0.00
0.00 0.00 0.00 0.00 0.00 0.00 0.00 0.00 0.00 0.00 0.00 0.01 0.01 0.00 0.00 0.00 0.00 0.00 0.00 0.00 0.00 0.00 0.00 0.00 0.00 0.00 0.00 0.00 0.00 0.00 0.00 0.00 0.00 0.00 0.00 0.00 0.00 0.00 0.00 0.00 0.00 0.00 0.00 0.00
0.00 0.00 0.00 0.00 0.00 0.00 0.00 0.00 0.00 0.00 0.00 0.03 0.02 0.01 0.00 0.00 0.00 0.00 0.00 0.00 0.00 0.00 0.00 0.00 0.00 0.00 0.00 0.00 0.00 0.00 0.00 0.00 0.00 0.00 0.00 0.00 0.00 0.00 0.00 0.00 0.00 0.00 0.00 0.00
0.00 0.00 0.00 0.00 0.00 0.00 0.00 0.00 0.00 0.00 0.03 0.03 0.02 0.05 0.00 0.00 0.00 0.00 0.00 0.00 0.00 0.00 0.00 0.00 0.00 0.00 0.00 0.00 0.00 0.00 0.00 0.00 0.00 0.00 0.00 0.00 0.00 0.00 0.00 0.00 0.00 0.00 0.00 0.00
0.00 0.00 0.00 0.00 0.00 0.00 0.00 0.00 0.00 0.00 0.00 0.00 0.00 0.01 0.00 0.00 0.00 0.00 0.00 0.00 0.00 0.00 0.00 0.00 0.00 0.00 0.00 0.00 0.00 0.00 0.00 0.00 0.00 0.00 0.00 0.00 0.00 0.00 0.00 0.00 0.00 0.00 0.00 0.00
0.00 0.00 0.00 0.00 0.00 0.00 0.00 0.00 0.00 0.00 0.00 0.00 0.00 0.00 0.00 0.00 0.00 0.00 0.00 0.00 0.00 0.00 0.00 0.00 0.00 0.00 0.00 0.00 0.00 0.00 0.00 0.00 0.00 0.00 0.00 0.00 0.00 0.00 0.00 0.00 0.00 0.00 0.00 0.00
0.00 0.00 0.00 0.00 0.00 0.00 0.00 0.00 0.00 0.00 0.00 0.00 0.00 0.00 0.00 0.00 0.00 0.00 0.00 0.00 0.00 0.00 0.00 0.00 0.00 0.00 0.00 0.00 0.00 0.00 0.00 0.00 0.00 0.00 0.00 0.00 0.00 0.00 0.00 0.00 0.00 0.00 0.00 0.00
0.00 0.00 0.00 0.00 0.00 0.00 0.00 0.00 0.00 0.00 0.00 0.00 0.00 0.00 0.00 0.00 0.00 0.00 0.00 0.00 0.00 0.00 0.00 0.00 0.00 0.00 0.00 0.00 0.00 0.00 0.00 0.00 0.00 0.00 0.00 0.00 0.00 0.00 0.00 0.00 0.00 0.00 0.00 0.00
0.00 0.00 0.00 0.00 0.00 0.00 0.00 0.00 0.00 0.00 0.00 0.00 0.00 0.00 0.00 0.00 0.00 0.00 0.00 0.00 0.00 0.00 0.00 0.00 0.00 0.00 0.00 0.00 0.00 0.00 0.00 0.00 0.00 0.00 0.00 0.00 0.00 0.00 0.00 0.00 0.00 0.00 0.00 0.00
0.00 0.00 0.00 0.00 0.00 0.00 0.00 0.00 0.00 0.00 0.00 0.00 0.00 0.00 0.00 0.00 0.00 0.00 0.00 0.00 0.00 0.00 0.00 0.00 0.00 0.00 0.00 0.00 0.00 0.00 0.00 0.00 0.00 0.00 0.00 0.00 0.00 0.00 0.00 0.00 0.00 0.00 0.00 0.00
0.00 0.00 0.00 0.00 0.00 0.00 0.00 0.00 0.00 0.00 0.00 0.00 0.00 0.00 0.00 0.00 0.00 0.00 0.00 0.00 0.00 0.00 0.00 0.00 0.00 0.00 0.00 0.00 0.00 0.00 0.00 0.00 0.00 0.00 0.00 0.00 0.00 0.00 0.00 0.00 0.00 0.00 0.00 0.00
0.00 0.00 0.00 0.00 0.00 0.00 0.00 0.00 0.00 0.00 0.00 0.00 0.00 0.00 0.00 0.00 0.00 0.00 0.00 0.00 0.00 0.00 0.00 0.00 0.00 0.00 0.00 0.00 0.00 0.00 0.00 0.00 0.00 0.00 0.00 0.00 0.00 0.00 0.00 0.00 0.00 0.00 0.00 0.00
0.00 0.00 0.00 0.00 0.00 0.00 0.00 0.00 0.00 0.00 0.00 0.00 0.00 0.00 0.00 0.00 0.00 0.00 0.00 0.00 0.00 0.00 0.00 0.00 0.00 0.00 0.00 0.00 0.00 0.00 0.00 0.00 0.00 0.00 0.00 0.00 0.00 0.00 0.00 0.00 0.00 0.00 0.00 0.00
0.00 0.00 0.00 0.00 0.00 0.00 0.00 0.00 0.00 0.00 0.00 0.00 0.00 0.00 0.00 0.00 0.00 0.00 0.00 0.00 0.00 0.00 0.00 0.00 0.00 0.00 0.00 0.00 0.00 0.00 0.00 0.00 0.00 0.00 0.00 0.00 0.00 0.00 0.00 0.00 0.00 0.00 0.00 0.00
0.00 0.00 0.00 0.00 0.00 0.00 0.00 0.00 0.00 0.00 0.00 0.00 0.00 0.00 0.00 0.00 0.00 0.00 0.00 0.00 0.00 0.00 0.00 0.00 0.00 0.00 0.00 0.00 0.00 0.00 0.00 0.00 0.00 0.00 0.00 0.00 0.00 0.00 0.00 0.00 0.00 0.00 0.00 0.00
0.00 0.00 0.00 0.00 0.00 0.00 0.00 0.00 0.00 0.00 0.00 0.00 0.00 0.00 0.00 0.00 0.00 0.00 0.00 0.00 0.00 0.00 0.00 0.00 0.00 0.00 0.00 0.00 0.00 0.00 0.00 0.00 0.00 0.00 0.00 0.00 0.00 0.00 0.00 0.00 0.00 0.00 0.00 0.00
MSLP
1009.88 1009.88 1009.68 1010.02 1009.87 1009.91 1009.69 1009.66 1008.86 1008.05 1008.34 1008.73 1008.96 1008.81 1008.60 1008.62 1008.84 1009.12 1009.25 1009.64 1010.32 1010.82 1011.60 1012.19 1012.59 1013.23 1013.63 1014.40 1014.75 1015.00 1015.30 1015.68 1015.89 1016.36 1016.83 1017.32 1017.79 1018.21 1018.46 1018.64 1018.94 1019.06 1019.13 1019.29
1010.25 1010.15 1009.83 1010.30 1010.53 1010.23 1010.39 1010.08 1009.46 1009.31 1009.08 1009.83 1010.02 1009.52 1009.26 1009.16 1009.48 1009.64 1009.78 1010.11 1010.66 1011.18 1011.66 1012.15 1012.34 1013.26 1014.18 1014.60 1014.77 1014.96 1015.30 1015.30 1015.51 1016.30 1016.65 1017.15 1017.58 1017.86 1018.12 1018.46 1018.79 1019.00 1019.18 1019.45
1010.40 1010.48 1010.66 1010.68 1010.75 1010.53 1010.64 1010.40 1010.08 1009.33 1010.01 1010.44 1010.47 1010.27 1010.22 1009.86 1010.09 1010.09 1010.30 1010.55 1011.02 1011.64 1012.30 1012.46 1013.08 1013.50 1014.13 1014.77 1015.00 1015.19 1015.30 1015.54 1015.92 1016.08 1016.50 1017.05 1017.40 1017.76 1018.05 1018.25 1018.78 1018.70 1019.20 1019.60
1011.06 1011.10 1010.92 1010.39 1010.73 1010.80 1010.59 1010.04 1010.07 1010.03 1010.46 1011.16 1011.48 1011.55 1011.36 1011.13 1011.05 1011.18 1011.52 1011.64 1011.67 1011.96 1012.67 1013.15 1013.59 1013.95 1014.34 1014.93 1015.02 1015.08 1015.42 1015.53 1015.94 1016.22 1016.43 1016.76 1017.25 1017.63 1017.91 1017.90 1018.40 1018.53 1019.20 1019.68
1011.73 1011.34 1010.97 1010.88 1010.60 1010.72 1010.30 1009.41 1009.58 1009.93 1010.84 1011.45 1011.86 1011.73 1012.25 1012.16 1012.33 1012.44 1012.67 1012.96 1013.10 1013.01 1013.10 1013.59 1013.89 1014.05 1014.27 1014.78 1015.27 1015.11 1015.50 1015.92 1016.15 1016.18 1016.56 1016.81 1016.99 1017.33 1017.60 1017.55 1018.18 1018.93 1019.55 1020.03
1012.08 1011.39 1010.44 1009.88 1010.17 1010.54 1010.28 1009.05 1009.10 1009.92 1010.97 1011.50 1011.78 1012.06 1012.76 1013.02 1012.96 1013.34 1013.48 1013.70 1013.90 1013.99 1013.98 1013.95 1014.21 1014.14 1014.37 1014.57 1014.83 1015.24 1015.52 1015.74 1015.86 1015.60 1016.07 1016.60 1016.90 1017.19 1017.39 1017.74 1018.63 1019.46 1019.95 1020.24
1011.82 1011.30 1010.70 1010.38 1010.40 1010.39 1010.12 1010.11 1009.76 1009.86 1011.12 1011.83 1012.17 1012.69 1013.52 1014.01 1014.15 1014.19 1014.33 1014.42 1014.56 1014.73 1014.66 1014.78 1014.63 1014.74 1015.00 1015.09 1015.41 1015.70 1015.82 1016.04 1016.36 1016.44 1016.27 1016.71 1016.81 1017.12 1017.54 1018.15 1018.70 1019.85 1020.50 1020.54
1012.01 1011.32 1010.98 1010.79 1010.76 1010.46 1010.22 1009.99 1010.53 1010.47 1011.67 1012.20 1013.20 1013.74 1014.21 1014.45 1014.59 1014.92 1014.87 1015.02 1015.06 1015.18 1015.47 1015.47 1015.51 1015.50 1015.67 1015.88 1016.06 1016.22 1016.51 1016.49 1016.19 1017.00 1016.92 1017.15 1017.53 1017.54 1017.72 1018.58 1019.25 1020.13 1020.50 1020.69
1011.94 1011.03 1010.80 1010.86 1010.55 1010.21 1010.33 1010.24 1010.76 1010.82 1011.92 1012.87 1013.07 1013.74 1014.36 1014.33 1014.71 1015.02 1015.16 1015.47 1015.62 1015.77 1015.94 1016.22 1016.26 1016.19 1016.43 1016.90 1016.91 1017.08 1017.30 1017.48 1017.66 1017.50 1017.84 1017.90 1018.04 1018.19 1018.37 1018.87 1019.46 1019.99 1020.30 1020.85
1011.49 1010.95 1010.74 1010.58 1010.45 1010.74 1010.68 1010.59 1010.84 1011.14 1011.88 1012.71 1013.46 1014.12 1014.54 1014.82 1014.99 1015.22 1015.53 1015.78 1015.94 1016.17 1016.48 1016.98 1017.30 1017.23 1017.28 1017.46 1017.52 1017.65 1017.93 1018.31 1018.26 1018.34 1018.29 1019.05 1019.02 1019.77 1019.31 1019.66 1019.97 1020.20 1020.54 1020.81
1010.86 1010.71 1010.49 1010.44 1010.63 1010.46 1010.56 1010.78 1011.23 1011.70 1012.15 1012.85 1013.48 1014.10 1014.36 1014.70 1015.06 1015.48 1015.87 1016.26 1016.28 1016.54 1016.84 1017.39 1017.86 1017.81 1017.89 1018.08 1018.14 1018.18 1018.32 1018.57 1018.81 1018.86 1019.10 1019.85 1020.82 1020.95 1020.47 1020.96 1020.80 1020.72 1020.63 1020.62
1009.55 1009.74 1009.85 1009.78 1010.30 1010.54 1010.61 1010.89 1011.26 1011.75 1012.50 1013.19 1013.68 1014.09 1014.59 1015.10 1015.70 1016.19 1016.47 1016.53 1016.86 1017.24 1017.51 1017.85 1018.09 1018.23 1018.23 1018.57 1018.73 1018.54 1018.58 1018.95 1019.06 1019.47 1020.04 1020.38 1020.56 1020.66 1020.78 1020.99 1021.15 1020.88 1020.98 1021.07
1009.55 1009.67 1010.01 1009.83 1010.14 1010.38 1010.58 1011.02 1011.49 1011.80 1012.48 1013.16 1014.01 1014.41 1014.88 1015.43 1016.04 1016.58 1016.64 1016.76 1017.12 1017.54 1017.78 1017.95 1018.21 1018.52 1018.61 1018.70 1018.75 1018.65 1018.82 1019.14 1019.43 1019.47 1019.60 1019.86 1020.08 1020.14 1020.22 1020.73 1020.76 1020.99 1021.53 1021.62
1009.64 1009.79 1010.18 1010.05 1010.07 1010.60 1010.94 1011.31 1011.81 1012.17 1012.84 1013.26 1014.01 1014.71 1015.12 1015.76 1016.30 1016.60 1016.65 1016.81 1017.32 1017.71 1018.19 1018.24 1018.42 1018.57 1018.84 1018.93 1019.06 1019.24 1019.18 1019.52 1019.27 1019.42 1019.72 1019.90 1020.06 1020.22 1020.42 1020.44 1020.55 1021.11 1021.51 1021.76
1009.32 1009.50 1009.28 1009.68 1010.37 1010.89 1011.38 1011.50 1011.81 1012.33 1013.08 1013.85 1014.48 1014.73 1015.40 1015.93 1016.34 1016.86 1017.10 1017.35 1017.75 1018.07 1018.25 1018.32 1018.56 1018.93 1019.11 1019.18 1019.27 1019.30 1019.19 1019.24 1019.44 1019.61 1019.60 1019.86 1019.69 1019.77 1019.98 1020.23 1020.32 1020.28 1020.46 1020.98
1009.10 1009.51 1009.61 1009.78 1010.27 1010.93 1011.40 1011.58 1011.84 1012.64 1013.21 1013.90 1014.49 1015.09 1015.80 1016.30 1016.78 1017.30 1017.49 1017.74 1017.99 1018.46 1018.79 1019.01 1019.36 1019.48 1019.33 1019.39 1019.33 1019.16 1019.28 1019.76 1019.78 1019.53 1019.59 1019.76 1019.85 1019.85 1019.96 1020.00 1020.02 1020.01 1019.94 1019.94
1008.75 1009.55 1009.75 1009.96 1010.32 1010.84 1011.07 1011.43 1011.92 1012.72 1013.57 1014.16 1014.85 1015.54 1016.14 1016.71 1017.18 1017.64 1018.09 1018.46 1018.86 1019.26 1019.50 1019.80 1020.18 1020.28 1020.30 1019.96 1019.55 1019.62 1019.75 1019.66 1019.84 1019.41 1019.25 1019.26 1019.26 1019.31 1019.48 1019.48 1019.32 1019.27 1019.34 1019.59
1007.28 1007.75 1008.50 1009.03 1009.86 1010.62 1011.26 1011.84 1012.42 1013.03 1013.70 1014.53 1015.30 1015.90 1016.43 1016.82 1017.44 1018.19 1018.75 1019.14 1019.50 1019.94 1020.28 1020.41 1020.40 1020.42 1020.44 1020.42 1020.28 1020.05 1019.81 1019.56 1019.44 1019.30 1019.35 1019.48 1019.51 1019.24 1019.23 1019.15 1019.07 1018.96 1018.84 1018.92
1007.71 1008.00 1008.54 1009.10 1009.64 1010.32 1010.99 1011.81 1012.63 1013.39 1014.16 1014.80 1015.43 1016.16 1016.75 1017.52 1018.25 1018.82 1019.18 1019.41 1019.70 1020.04 1020.59 1020.58 1020.72 1020.59 1020.70 1020.77 1020.48 1020.25 1020.06 1019.96 1019.72 1019.54 1019.38 1019.45 1019.16 1018.98 1018.98 1018.97 1018.92 1018.80 1018.66 1018.69
1007.67 1008.22 1008.77 1009.14 1009.87 1010.32 1011.04 1011.95 1012.85 1013.78 1014.55 1015.18 1015.97 1016.64 1017.38 1018.06 1018.50 1018.91 1019.31 1019.66 1020.04 1020.42 1020.81 1020.82 1020.77 1020.74 1020.86 1020.79 1020.58 1020.24 1020.10 1019.93 1019.73 1019.46 1019.26 1019.26 1019.00 1018.86 1018.96 1018.95 1019.04 1018.76 1018.57 1018.50
1007.34 1008.03 1008.68 1009.38 1009.99 1010.56 1011.15 1011.78 1012.68 1013.76 1014.70 1015.38 1015.82 1016.60 1017.40 1018.18 1018.68 1019.05 1019.26 1019.38 1020.21 1020.50 1020.59 1020.79 1020.68 1020.61 1020.67 1020.56 1020.43 1020.36 1020.25 1020.11 1019.97 1019.89 1019.78 1019.61 1019.48 1019.33 1019.23 1019.09 1018.92 1018.74 1018.56 1018.43
1007.27 1007.90 1008.63 1009.29 1009.94 1010.63 1011.36 1012.06 1012.90 1013.86 1014.64 1015.54 1016.23 1016.78 1017.30 1017.83 1018.34 1018.73 1019.15 1019.30 1019.95 1020.49 1020.44 1020.59 1020.74 1021.01 1020.82 1020.71 1020.53 1020.41 1020.39 1020.29 1020.19 1020.05 1019.90 1019.89 1019.77 1019.67 1019.54 1019.36 1019.18 1019.02 1018.83 1018.56
1006.94 1007.61 1008.46 1009.20 1009.70 1010.40 1011.39 1012.07 1012.98 1013.82 1014.59 1015.34 1015.97 1016.50 1017.04 1017.56 1018.05 1018.44 1019.03 1019.86 1019.97 1020.40 1020.41 1020.67 1021.07 1021.15 1021.13 1020.92 1020.89 1020.78 1020.60 1020.45 1020.37 1020.32 1020.27 1020.18 1020.04 1019.86 1019.63 1019.44 1019.36 1019.03 1018.66 1018.42
1007.05 1007.73 1008.39 1009.17 1009.96 1010.78 1011.45 1012.26 1012.96 1013.78 1014.58 1015.37 1015.97 1016.45 1016.84 1017.54 1018.26 1018.53 1018.94 1019.57 1020.00 1020.35 1020.35 1020.74 1021.04 1021.15 1021.18 1021.05 1020.95 1020.84 1020.72 1020.71 1020.67 1020.60 1020.51 1020.48 1020.18 1020.06 1019.98 1019.83 1019.52 1019.19 1018.82 1018.51
1007.05 1007.73 1008.50 1009.22 1009.82 1010.38 1011.24 1012.16 1013.00 1013.94 1014.77 1015.41 1016.10 1016.62 1016.95 1017.28 1017.42 1018.26 1018.83 1019.26 1019.79 1020.03 1020.22 1020.73 1020.98 1021.09 1021.03 1020.98 1020.95 1020.91 1020.88 1020.84 1020.81 1020.72 1020.59 1020.56 1020.43 1020.35 1020.22 1020.18 1019.99 1019.48 1019.22 1018.83
1007.15 1007.68 1008.22 1008.66 1009.04 1009.92 1010.94 1011.97 1012.41 1013.31 1014.16 1014.95 1015.75 1016.24 1016.63 1017.19 1017.60 1018.06 1018.61 1018.91 1019.22 1019.66 1019.82 1020.20 1020.41 1020.69 1020.78 1020.84 1020.80 1020.74 1020.69 1020.66 1020.70 1020.70 1020.74 1020.58 1020.40 1020.19 1020.17 1020.09 1019.92 1019.48 1019.14 1018.82
1007.55 1007.97 1008.52 1009.13 1009.67 1010.32 1010.87 1011.24 1012.14 1012.99 1013.77 1014.23 1014.81 1015.62 1016.10 1016.73 1017.21 1017.62 1018.13 1018.41 1018.72 1018.97 1019.18 1019.50 1019.82 1020.14 1020.24 1020.32 1020.39 1020.43 1020.46 1020.48 1020.57 1020.48 1020.41 1020.31 1020.15 1019.98 1019.92 1019.90 1019.71 1019.68 1019.40 1019.07
Thickness
5673 5676 5681 5678 5684 5688 5689 5691 5696 5717 5714 5720 5723 5731 5740 5746 5745 5742 5742 5745 5743 5745 5747 5749 5751 5753 5757 5754 5754 5757 5756 5757 5757 5756 5755 5754 5752 5750 5751 5751 5750 5751 5752 5752
5658 5669 5676 5669 5672 5681 5681 5686 5696 5702 5711 5717 5720 5730 5737 5742 5741 5741 5743 5741 5741 5740 5742 5744 5749 5747 5745 5746 5749 5752 5753 5755 5756 5751 5751 5749 5748 5748 5747 5746 5744 5745 5745 5744
5647 5658 5654 5643 5662 5671 5678 5686 5689 5700 5704 5710 5712 5720 5726 5736 5738 5741 5742 5742 5742 5737 5731 5736 5738 5740 5739 5737 5739 5743 5745 5749 5747 5748 5746 5744 5742 5741 5740 5739 5736 5739 5737 5736
5639 5641 5619 5661 5670 5675 5679 5689 5695 5698 5702 5700 5702 5707 5715 5724 5728 5729 5730 5732 5737 5735 5729 5726 5730 5730 5732 5730 5733 5737 5737 5734 5738 5740 5740 5736 5736 5734 5734 5736 5732 5733 5730 5727
5629 5628 5641 5650 5662 5665 5673 5692 5699 5695 5694 5698 5699 5705 5704 5711 5714 5716 5717 5719 5718 5720 5723 5721 5723 5726 5727 5727 5726 5731 5728 5729 5730 5731 5731 5732 5730 5729 5730 5733 5729 5723 5718 5715
5624 5625 5629 5659 5668 5672 5678 5676 5702 5698 5690 5695 5697 5693 5695 5702 5708 5706 5709 5709 5708 5709 5714 5719 5719 5722 5723 5724 5724 5723 5721 5722 5725 5724 5724 5725 5725 5724 5725 5723 5715 5710 5703 5701
5628 5631 5643 5657 5664 5671 5659 5675 5691 5697 5688 5690 5688 5695 5691 5689 5691 5696 5699 5700 5702 5704 5706 5708 5713 5714 5713 5713 5711 5712 5713 5712 5712 5715 5714 5715 5717 5715 5714 5711 5704 5694 5689 5690
5625 5629 5629 5654 5657 5657 5671 5680 5681 5687 5680 5679 5671 5673 5678 5681 5684 5685 5687 5690 5694 5695 5695 5698 5699 5701 5702 5702 5703 5703 5702 5703 5705 5702 5703 5704 5704 5705 5703 5699 5688 5682 5680 5681
5635 5644 5652 5653 5659 5670 5670 5676 5676 5680 5674 5669 5663 5668 5670 5674 5678 5680 5682 5682 5685 5686 5685 5686 5688 5691 5690 5688 5691 5690 5689 5688 5688 5689 5689 5689 5691 5691 5689 5685 5682 5679 5678 5673
5637 5646 5648 5654 5660 5661 5666 5671 5674 5676 5672 5668 5663 5665 5664 5666 5670 5672 5673 5674 5676 5677 5675 5671 5671 5675 5677 5679 5680 5680 5677 5676 5679 5677 5678 5674 5674 5670 5675 5674 5673 5671 5669 5669
5641 5646 5652 5655 5656 5664 5667 5670 5667 5668 5667 5664 5662 5660 5660 5662 5665 5665 5664 5664 5667 5667 5666 5664 5661 5663 5666 5666 5667 5668 5668 5667 5666 5667 5664 5658 5651 5649 5655 5652 5656 5660 5663 5664
5652 5659 5659 5662 5662 5663 5664 5663 5664 5662 5658 5657 5656 5655 5655 5653 5652 5651 5651 5655 5655 5655 5655 5654 5653 5653 5655 5654 5654 5656 5658 5658 5659 5655 5650 5649 5649 5648 5644 5643 5642 5646 5647 5650
5662 5663 5660 5666 5666 5666 5666 5663 5662 5661 5658 5653 5650 5650 5649 5646 5644 5639 5645 5647 5646 5645 5645 5646 5646 5644 5644 5645 5645 5646 5648 5647 5643 5645 5646 5644 5644 5644 5643 5634 5632 5631 5628 5628
5662 5662 5655 5662 5662 5663 5662 5661 5658 5659 5655 5653 5649 5646 5644 5639 5637 5638 5642 5644 5642 5640 5638 5640 5640 5639 5638 5638 5636 5635 5636 5632 5635 5634 5631 5630 5629 5628 5627 5627 5626 5622 5615 5614
5663 5666 5669 5667 5662 5658 5657 5659 5656 5653 5649 5645 5644 5644 5639 5636 5635 5632 5635 5637 5635 5633 5633 5635 5633 5630 5629 5629 5627 5626 5627 5627 5625 5622 5622 5619 5621 5621 5619 5616 5615 5615 5613 5607
5665 5663 5664 5663 5660 5655 5654 5656 5655 5649 5647 5644 5641 5639 5634 5632 5629 5627 5629 5630 5627 5623 5623 5622 5618 5617 5619 5618 5619 5620 5619 5613 5612 5613 5610 5608 5605 5603 5602 5600 5598 5598 5598 5598
5660 5653 5656 5657 5656 5653 5654 5656 5654 5648 5643 5640 5636 5631 5628 5624 5623 5620 5619 5617 5613 5609 5608 5606 5602 5602 5602 5606 5610 5608 5606 5606 5603 5606 5605 5604 5602 5599 5595 5592 5591 5588 5585 5581
5678 5675 5669 5666 5660 5654 5651 5650 5647 5643 5639 5634 5629 5627 5624 5623 5618 5611 5608 5604 5601 5596 5593 5594 5595 5595 5593 5592 5592 5593 5594 5596 5595 5594 5591 5588 5585 5584 5582 5580 5579 5576 5574 5571
5671 5669 5667 5664 5661 5657 5653 5648 5643 5639 5633 5630 5626 5622 5619 5613 5607 5603 5601 5600 5598 5595 5591 5592 5589 5589 5586 5583 5585 5584 5584 5581 5581 5579 5578 5574 5576 5573 5569 5564 5561 5558 5555 5551
5666 5664 5662 5661 5656 5655 5650 5645 5639 5632 5629 5627 5621 5616 5610 5606 5603 5600 5596 5593 5590 5588 5583 5583 5583 5582 5579 5578 5578 5579 5577 5574 5572 5570 5568 5565 5563 5559 5554 5547 5541 5539 5536 5532
5663 5659 5657 5653 5649 5648 5646 5643 5637 5630 5625 5622 5619 5613 5607 5601 5598 5594 5592 5593 5584 5581 5580 5577 5577 5576 5573 5572 5570 5567 5565 5563 5560 5556 5552 5548 5544 5540 5535 5530 5525 5520 5515 5510
5658 5655 5652 5649 5645 5642 5639 5636 5632 5626 5622 5616 5612 5609 5605 5600 5596 5592 5589 5587 5580 5573 5573 5571 5568 5563 5563 5561 5560 5558 5554 5550 5546 5542 5538 5533 5528 5523 5517 5512 5505 5499 5492 5488
5653 5651 5647 5643 5641 5638 5633 5631 5625 5621 5616 5612 5608 5606 5602 5597 5593 5587 5582 5575 5574 5568 5567 5563 5556 5553 5550 5550 5547 5544 5541 5537 5533 5528 5524 5519 5514 5509 5504 5498 5490 5485 5482 5476
5644 5643 5641 5637 5633 5628 5625 5621 5619 5615 5611 5605 5602 5599 5596 5590 5583 5581 5577 5570 5565 5560 5560 5554 5548 5543 5540 5538 5535 5531 5528 5524 5520 5515 5511 5503 5502 5495 5488 5481 5477 5473 5470 5462
5639 5637 5632 5628 5625 5624 5620 5616 5612 5607 5603 5600 5595 5591 5589 5586 5584 5575 5570 5565 5558 5554 5551 5543 5538 5532 5531 5527 5523 5520 5516 5512 5508 5504 5500 5495 5489 5483 5476 5468 5462 5462 5456 5450
5632 5631 5629 5626 5627 5623 5617 5611 5611 5605 5601 5595 5589 5586 5583 5578 5574 5569 5563 5559 5554 5547 5544 5538 5532 5525 5521 5517 5514 5511 5507 5504 5499 5495 5489 5485 5481 5476 5467 5459 5454 5454 5451 5446
5623 5621 5619 5616 5615 5613 5611 5611 5606 5600 5596 5594 5589 5583 5578 5573 5568 5563 5557 5554 5548 5543 5539 5532 5525 5518 5515 5510 5506 5503 5499 5495 5489 5487 5483 5480 5476 5470 5462 5454 5450 5447 5444 5440